THOR ABLESTAR DEB

Satellite information

Favourite Embed

Satellite Type and Status

DEBRISIN ORBIT

Key statistics

Satellite THOR ABLESTAR DEB at a glance.

Uptime

23544

Days in orbit

Revolutions

≈ 14.1

Per day

Orbit

LEO

Low Earth Orbit

Inclination

67.0

Latest

Satellite identification and parameters

Extended collection of information and parameters for THOR ABLESTAR DEB.

Object identification

Identified? True

Debris? True

Object name: THOR ABLESTAR DEB

International designator: 1961-015BT

Object number (NORAD): 235

Object ID (CCSDS): 235

Country: UNITED STATES OF AMERICA (US)

Current information (Y/N): Y

RCS size: SMALL

Orbital parameters

Period: 102.043 minutes

Inclination: 66.9558 deg

SMA: 7233.51 km

Apoapsis: 967.812 km

Periapsis: 742.939 km

RAAN: 20.2258 deg

Eccentricy: 0.01554382

Argument of periapsis: 116.4656 deg

Mean anomaly: 245.2475 deg

Mean motion: 14.11169201 rev/day

Mean motion (dot): 0.00000617 rev/day2

B* drag term: 0.00034442732 1/REarth

Two-line elements (TLE)

Creation date: Dec. 12, 2025, 10:14 a.m.

Reference frame: TEME

Reference center: EARTH

Epoch: Dec. 12, 2025, 6:17 a.m. UTC

TLE line 0: 0 THOR ABLESTAR DEB

TLE line 1: 1 00235U 61015BT 25346.26205082 .00000617 00000-0 34443-3 0 9993

TLE line 2: 2 00235 66.9558 20.2258 0155438 116.4656 245.2475 14.11169201294959

Live tracking on map

Real-time ground track for satellite THOR ABLESTAR DEB.

In-orbit conjunctions

A list of the most updated potential collisions computed for object THOR ABLESTAR DEB.

Target Orbit TCA Probability of collision Miss distance Type
CZ-6A DEB SSO 2025-08-28 16:15:20 0.0001962347 185.0 (m) DEBRIS
NOAA 16 DEB SSO 2024-11-14 08:24:38 0.0001524776 220.0 (m) DEBRIS
COSMOS 2016 LEO 2024-08-06 07:54:37 0.003628954 255.0 (m) PAYLOAD

Associated space launch

THOR ABLESTAR DEB was lifted into orbit during the mission ‘Thor DM-21 Ablestar | Transit 4A & Injun-1 & Solrad 3’, on board a Thor DM-21 Ablestar space rocket.

The launch took place on June 29, 1961, 4:23 a.m. from Space Launch Complex 17B.

For more information about the launch, click the button.

Launch to space Thor DM-21 Ablestar | Transit 4A & Injun-1 & Solrad 3
Thor DM-21 Ablestar | Transit 4A & Injun-1 & Solrad 3

Agency: N/A

Status: Launch Successful

Launch date: June 29, 1961, 4:23 a.m. UTC

Rocket: Thor DM-21 Ablestar

Launch pad: Space Launch Complex 17B

Location: Cape Canaveral SFS, FL, USA

...

Latest news about this satellite

There are no fresh news available about this satellite. Check back as we update our databases every day.


Newsletter sign-up

Weekly statistics, charts and insights to help you stay on top of the space industry.